User: anonymous
Location: Unspecified
(42.0334°N, 93.6656°W)
Time: 16:20:24
(UTC-05:00)
Language:

Iridium 63 - Orbit

View from above orbital plane
View from above orbital plane
View from above satellite
View from above satellite

Ground track
Ground track

The orbit data is extracted from the following two-line orbital elements,

1 25286U 98021B   14245.34427711  .00000208  00000-0  67200-4 0  9504
2 25286 086.3968 290.0577 0002345 112.3587 010.1164 14.34222873858983
Epoch (UTC): 02 September 2014 08:15:45
Eccentricity: 0.0002345
inclination: 86.3968°
perigee height: 776 km
apogee height: 779 km
right ascension of ascending node: 290.0577°
argument of perigee: 112.3587°
revolutions per day: 14.34222873
mean anomaly at epoch: 10.1164°
orbit number at epoch: 85898

The dashed part of the orbit path shows where the satellite is in the earth's shadow,  

DLR